• In Russia
  • List of Countries
  • For 7 days
  • Water Temperature
  • Satellite Maps
  • Weather Map
  • Weather Widgets
  • user-avatar
    Login

    Hourly Weather Gjirokaster

    Today, 24 May, Thursday

    Time Temperature Precipitation Wind Pressure Humidity
    00:00 +10°C° 0.2 mm 2 mps 651 mmHg 90%
    01:00 +10°C° 0 mm 1 mps 651 mmHg 90%
    02:00 +10°C° 0.1 mm 1 mps 651 mmHg 90%
    03:00 +10°C° 0.1 mm 1 mps 651 mmHg 90%
    04:00 +9°C° 0.1 mm 1 mps 650 mmHg 90%
    05:00 +11°C° 0 mm 1 mps 651 mmHg 86%
    06:00 +12°C° 0 mm 1 mps 651 mmHg 82%
    07:00 +14°C° 0 mm 1 mps 651 mmHg 76%
    08:00 +15°C° 0.1 mm 2 mps 652 mmHg 73%
    09:00 +16°C° 0.1 mm 2 mps 652 mmHg 69%
    10:00 +17°C° 0.1 mm 2 mps 652 mmHg 65%
    11:00 +17°C° 0.4 mm 2 mps 652 mmHg 66%
    12:00 +17°C° 0.4 mm 3 mps 652 mmHg 66%
    13:00 +18°C° 0.4 mm 3 mps 652 mmHg 67%
    14:00 +17°C° 0.6 mm 3 mps 652 mmHg 69%
    15:00 +17°C° 0.6 mm 3 mps 652 mmHg 71%
    16:00 +17°C° 0.6 mm 4 mps 651 mmHg 73%
    17:00 +14°C° 0.5 mm 3 mps 651 mmHg 78%
    18:00 +13°C° 0.5 mm 3 mps 651 mmHg 83%
    19:00 +12°C° 0.5 mm 3 mps 651 mmHg 88%
    20:00 +12°C° 0.1 mm 2 mps 651 mmHg 89%
    21:00 +12°C° 0.1 mm 2 mps 651 mmHg 90%
    22:00 +10°C° 0.1 mm 2 mps 651 mmHg 91%
    23:00 +10°C° 0 mm 2 mps 651 mmHg 90%

    Tomorrow, 25 May, Friday

    Time Temperature Precipitation Wind Pressure Humidity
    00:00 +10°C° 0 mm 2 mps 650 mmHg 89%
    01:00 +10°C° 0 mm 2 mps 650 mmHg 89%
    02:00 +9°C° 0 mm 2 mps 650 mmHg 88%
    03:00 +9°C° 0 mm 2 mps 650 mmHg 88%
    04:00 +9°C° 0 mm 2 mps 650 mmHg 87%
    05:00 +12°C° 0 mm 2 mps 650 mmHg 83%
    06:00 +13°C° 0 mm 2 mps 651 mmHg 78%
    07:00 +15°C° 0 mm 1 mps 651 mmHg 74%
    08:00 +17°C° 0 mm 2 mps 652 mmHg 68%
    09:00 +18°C° 0 mm 2 mps 652 mmHg 61%
    10:00 +20°C° 0 mm 2 mps 652 mmHg 55%
    11:00 +20°C° 0.1 mm 2 mps 652 mmHg 55%
    12:00 +20°C° 0.1 mm 3 mps 652 mmHg 55%
    13:00 +20°C° 0.1 mm 3 mps 652 mmHg 55%
    14:00 +20°C° 0.8 mm 3 mps 652 mmHg 59%
    15:00 +19°C° 0.8 mm 3 mps 652 mmHg 62%
    16:00 +19°C° 0.8 mm 3 mps 652 mmHg 65%
    17:00 +17°C° 0.4 mm 3 mps 651 mmHg 71%
    18:00 +16°C° 0.4 mm 2 mps 651 mmHg 76%
    19:00 +14°C° 0.4 mm 2 mps 651 mmHg 82%
    20:00 +14°C° 0.1 mm 2 mps 651 mmHg 82%
    21:00 +13°C° 0.1 mm 2 mps 652 mmHg 83%
    22:00 +13°C° 0.1 mm 2 mps 652 mmHg 84%
    23:00 +12°C° 0 mm 2 mps 652 mmHg 83%

    Day after tomorrow, 26 May, Saturday

    Time Temperature Precipitation Wind Pressure Humidity
    00:00 +12°C° 0 mm 2 mps 652 mmHg 83%
    01:00 +12°C° 0 mm 2 mps 651 mmHg 83%
    02:00 +10°C° 0 mm 2 mps 651 mmHg 82%
    03:00 +10°C° 0 mm 2 mps 651 mmHg 81%
    04:00 +10°C° 0 mm 2 mps 651 mmHg 81%
    05:00 +13°C° 0 mm 2 mps 652 mmHg 77%
    06:00 +14°C° 0 mm 2 mps 653 mmHg 73%
    07:00 +16°C° 0 mm 2 mps 653 mmHg 69%
    08:00 +18°C° 0 mm 1 mps 654 mmHg 63%
    09:00 +20°C° 0 mm 1 mps 654 mmHg 57%
    10:00 +21°C° 0 mm 1 mps 655 mmHg 52%
    11:00 +21°C° 0.2 mm 2 mps 655 mmHg 52%
    12:00 +21°C° 0.2 mm 2 mps 655 mmHg 52%
    13:00 +21°C° 0.2 mm 3 mps 654 mmHg 53%
    14:00 +21°C° 0.8 mm 3 mps 654 mmHg 55%
    15:00 +20°C° 0.8 mm 3 mps 654 mmHg 58%
    16:00 +20°C° 0.8 mm 3 mps 654 mmHg 61%
    17:00 +18°C° 0.3 mm 3 mps 653 mmHg 66%
    18:00 +17°C° 0.3 mm 2 mps 653 mmHg 71%
    19:00 +15°C° 0.3 mm 2 mps 653 mmHg 76%
    20:00 +15°C° 0 mm 2 mps 653 mmHg 77%
    21:00 +14°C° 0 mm 2 mps 653 mmHg 78%
    22:00 +13°C° 0 mm 2 mps 653 mmHg 79%
    23:00 +13°C° 0 mm 2 mps 653 mmHg 78%

    27 May, Sunday

    Time Temperature Precipitation Wind Pressure Humidity
    00:00 +13°C° 0 mm 2 mps 653 mmHg 78%
    01:00 +13°C° 0 mm 2 mps 653 mmHg 77%
    02:00 +12°C° 0 mm 2 mps 653 mmHg 77%
    03:00 +12°C° 0 mm 2 mps 653 mmHg 77%
    04:00 +12°C° 0 mm 2 mps 653 mmHg 76%
    05:00 +14°C° 0 mm 2 mps 653 mmHg 73%
    06:00 +15°C° 0 mm 2 mps 654 mmHg 69%
    07:00 +17°C° 0 mm 2 mps 654 mmHg 66%
    08:00 +18°C° 0 mm 2 mps 655 mmHg 59%
    09:00 +20°C° 0 mm 2 mps 655 mmHg 53%
    10:00 +21°C° 0 mm 2 mps 655 mmHg 47%
    11:00 +23°C° 0 mm 2 mps 655 mmHg 47%
    12:00 +23°C° 0 mm 2 mps 655 mmHg 46%
    13:00 +24°C° 0 mm 3 mps 655 mmHg 46%
    14:00 +22°C° 0 mm 3 mps 655 mmHg 50%
    15:00 +21°C° 0 mm 3 mps 655 mmHg 55%
    16:00 +21°C° 0 mm 3 mps 655 mmHg 59%
    17:00 +19°C° 0.2 mm 2 mps 654 mmHg 66%
    18:00 +17°C° 0.2 mm 2 mps 654 mmHg 73%
    19:00 +16°C° 0.2 mm 2 mps 654 mmHg 80%
    20:00 +15°C° 0.1 mm 2 mps 654 mmHg 80%
    21:00 +15°C° 0.1 mm 2 mps 654 mmHg 81%
    22:00 +14°C° 0.1 mm 1 mps 654 mmHg 82%
    23:00 +14°C° 0 mm 1 mps 654 mmHg 82%

    28 May, Monday

    Time Temperature Precipitation Wind Pressure Humidity
    00:00 +14°C° 0 mm 1 mps 653 mmHg 81%
    01:00 +13°C° 0 mm 1 mps 653 mmHg 81%
    02:00 +13°C° 0 mm 1 mps 653 mmHg 81%
    03:00 +13°C° 0 mm 1 mps 653 mmHg 81%
    04:00 +13°C° 0 mm 1 mps 653 mmHg 81%
    05:00 +14°C° 0 mm 1 mps 654 mmHg 77%
    06:00 +16°C° 0 mm 1 mps 654 mmHg 73%
    07:00 +18°C° 0 mm 1 mps 655 mmHg 69%
    08:00 +19°C° 0.1 mm 1 mps 655 mmHg 64%
    09:00 +21°C° 0.1 mm 1 mps 655 mmHg 60%
    10:00 +22°C° 0.1 mm 1 mps 656 mmHg 56%
    11:00 +21°C° 0.4 mm 2 mps 655 mmHg 55%
    12:00 +23°C° 0.4 mm 2 mps 655 mmHg 54%
    13:00 +22°C° 0.4 mm 3 mps 655 mmHg 54%
    14:00 +22°C° 0.5 mm 3 mps 655 mmHg 56%
    15:00 +21°C° 0.5 mm 3 mps 654 mmHg 59%
    16:00 +21°C° 0.5 mm 3 mps 654 mmHg 62%
    17:00 +19°C° 0.6 mm 3 mps 654 mmHg 68%
    18:00 +18°C° 0.6 mm 2 mps 654 mmHg 74%
    19:00 +16°C° 0.6 mm 2 mps 653 mmHg 80%
    20:00 +15°C° 0 mm 2 mps 653 mmHg 81%
    21:00 +15°C° 0 mm 2 mps 653 mmHg 81%
    22:00 +14°C° 0 mm 2 mps 653 mmHg 82%
    23:00 +14°C° 0 mm 2 mps 653 mmHg 81%

    29 May, Tuesday

    Time Temperature Precipitation Wind Pressure Humidity
    00:00 +14°C° 0 mm 2 mps 653 mmHg 81%
    01:00 +13°C° 0 mm 2 mps 653 mmHg 81%
    02:00 +13°C° 0 mm 2 mps 653 mmHg 81%
    03:00 +13°C° 0 mm 2 mps 653 mmHg 81%
    04:00 +12°C° 0 mm 1 mps 652 mmHg 81%
    05:00 +14°C° 0 mm 1 mps 653 mmHg 77%
    06:00 +15°C° 0 mm 1 mps 653 mmHg 73%
    07:00 +18°C° 0 mm 1 mps 654 mmHg 69%
    08:00 +19°C° 0 mm 1 mps 654 mmHg 64%
    09:00 +21°C° 0 mm 1 mps 654 mmHg 59%
    10:00 +22°C° 0 mm 1 mps 655 mmHg 54%
    11:00 +21°C° 0.4 mm 2 mps 655 mmHg 54%
    12:00 +21°C° 0.4 mm 2 mps 654 mmHg 55%
    13:00 +23°C° 0.4 mm 2 mps 654 mmHg 55%
    14:00 +21°C° 0.7 mm 2 mps 654 mmHg 57%
    15:00 +21°C° 0.7 mm 2 mps 654 mmHg 59%
    16:00 +21°C° 0.7 mm 2 mps 653 mmHg 61%
    17:00 +19°C° 0.5 mm 2 mps 653 mmHg 67%
    18:00 +17°C° 0.5 mm 2 mps 653 mmHg 73%
    19:00 +16°C° 0.5 mm 2 mps 653 mmHg 79%
    20:00 +15°C° 0 mm 2 mps 652 mmHg 80%
    21:00 +15°C° 0 mm 2 mps 652 mmHg 81%
    22:00 +14°C° 0 mm 2 mps 652 mmHg 82%
    23:00 +13°C° 0 mm 2 mps 652 mmHg 82%
    Show more